TimeMST,TemperatureF,Dew PointF,Humidity,Sea Level PressureIn,VisibilityMPH,Wind Direction,Wind SpeedMPH,Gust SpeedMPH,PrecipitationIn,Events,Conditions,WindDirDegrees,DateUTC
12:53 AM,12.0,9.0,88,30.65,4.0,Calm,Calm,-,N/A,,Overcast,0,2013-01-19 07:53:00
1:53 AM,10.9,7.0,84,30.65,4.0,South,5.8,-,N/A,,Overcast,170,2013-01-19 08:53:00
2:53 AM,10.9,8.1,88,30.66,4.0,Calm,Calm,-,N/A,,Overcast,0,2013-01-19 09:53:00
3:53 AM,12.0,9.0,88,30.66,4.0,Calm,Calm,-,N/A,,Overcast,0,2013-01-19 10:53:00
4:53 AM,12.0,8.1,84,30.67,4.0,Calm,Calm,-,N/A,,Overcast,0,2013-01-19 11:53:00
5:13 AM,10.4,6.8,85,30.50,2.5,South,4.6,-,N/A,,Overcast,180,2013-01-19 12:13:00
5:39 AM,10.4,8.6,92,30.51,3.0,Calm,Calm,-,N/A,,Overcast,0,2013-01-19 12:39:00
5:48 AM,12.2,6.8,79,30.51,2.0,Calm,Calm,-,0.00,Snow,Light Snow,0,2013-01-19 12:48:00
5:53 AM,12.0,7.0,80,30.69,1.8,Calm,Calm,-,0.00,Snow,Light Snow,0,2013-01-19 12:53:00
6:15 AM,10.4,6.8,85,30.51,1.8,Calm,Calm,-,0.00,Snow,Light Snow,0,2013-01-19 13:15:00
6:26 AM,10.4,6.8,85,30.51,2.5,Calm,Calm,-,0.00,,Overcast,0,2013-01-19 13:26:00
6:35 AM,8.6,5.0,85,30.52,3.0,South,3.5,-,0.00,,Overcast,190,2013-01-19 13:35:00
6:53 AM,9.0,5.0,84,30.70,4.0,SSE,3.5,-,0.00,,Overcast,160,2013-01-19 13:53:00
7:37 AM,6.8,3.2,85,30.53,5.0,South,4.6,-,N/A,,Scattered Clouds,180,2013-01-19 14:37:00
7:46 AM,6.8,3.2,85,30.53,4.0,South,5.8,-,N/A,,Mostly Cloudy,170,2013-01-19 14:46:00
7:53 AM,7.0,3.0,84,30.73,4.0,SSE,4.6,-,N/A,,Mostly Cloudy,160,2013-01-19 14:53:00
8:53 AM,8.1,5.0,87,30.75,3.0,Calm,Calm,-,N/A,,Overcast,0,2013-01-19 15:53:00
9:03 AM,8.6,5.0,85,30.55,2.0,Calm,Calm,-,N/A,,Overcast,0,2013-01-19 16:03:00
9:53 AM,10.9,8.1,88,30.75,3.0,Calm,Calm,-,N/A,,Overcast,0,2013-01-19 16:53:00
10:30 AM,15.8,10.4,79,30.57,3.0,Calm,Calm,-,N/A,,Haze,0,2013-01-19 17:30:00
10:53 AM,15.1,9.0,77,30.74,3.0,Calm,Calm,-,N/A,,Haze,0,2013-01-19 17:53:00
11:00 AM,15.8,10.4,79,30.57,3.0,Calm,Calm,-,N/A,,Haze,0,2013-01-19 18:00:00
11:07 AM,15.8,8.6,73,30.57,3.0,Calm,Calm,-,N/A,,Haze,0,2013-01-19 18:07:00
11:23 AM,15.8,8.6,73,30.56,4.0,Calm,Calm,-,N/A,,Haze,0,2013-01-19 18:23:00
11:37 AM,14.0,8.6,79,30.56,2.5,NNW,4.6,-,N/A,,Haze,330,2013-01-19 18:37:00
11:53 AM,15.1,9.0,77,30.71,3.0,NNW,4.6,-,N/A,,Haze,330,2013-01-19 18:53:00
12:53 PM,16.0,10.0,77,30.69,4.0,NW,3.5,-,N/A,,Haze,320,2013-01-19 19:53:00
1:53 PM,16.0,10.0,77,30.68,5.0,NW,4.6,-,N/A,,Haze,320,2013-01-19 20:53:00
2:53 PM,16.0,10.0,77,30.67,4.0,NNW,3.5,-,N/A,,Haze,330,2013-01-19 21:53:00
3:53 PM,16.0,10.0,77,30.65,3.0,NW,5.8,-,N/A,,Haze,310,2013-01-19 22:53:00
4:10 PM,14.0,8.6,79,30.49,2.5,NW,6.9,-,N/A,,Haze,320,2013-01-19 23:10:00
4:20 PM,14.0,8.6,79,30.49,3.0,NW,6.9,-,N/A,,Haze,320,2013-01-19 23:20:00
4:27 PM,14.0,8.6,79,30.49,2.5,NW,5.8,-,N/A,,Haze,320,2013-01-19 23:27:00
4:36 PM,14.0,8.6,79,30.49,3.0,NW,6.9,-,N/A,,Haze,320,2013-01-19 23:36:00
4:53 PM,12.0,8.1,84,30.67,3.0,NW,6.9,-,N/A,,Clear,320,2013-01-19 23:53:00
5:13 PM,10.4,6.8,85,30.49,2.5,NNW,5.8,-,N/A,,Partly Cloudy,330,2013-01-20 00:13:00
5:29 PM,10.4,6.8,85,30.49,2.5,NNW,4.6,-,N/A,,Mostly Cloudy,330,2013-01-20 00:29:00
5:45 PM,10.4,6.8,85,30.49,3.0,NNW,4.6,-,N/A,,Overcast,330,2013-01-20 00:45:00
5:53 PM,10.9,8.1,88,30.67,3.0,NNW,4.6,-,N/A,,Overcast,330,2013-01-20 00:53:00
6:10 PM,12.2,8.6,85,30.49,2.5,NW,4.6,-,N/A,,Overcast,320,2013-01-20 01:10:00
6:20 PM,12.2,10.4,92,30.49,1.8,NW,3.5,-,N/A,,Overcast,320,2013-01-20 01:20:00
6:27 PM,12.2,10.4,92,30.50,2.0,NW,3.5,-,N/A,,Overcast,320,2013-01-20 01:27:00
6:53 PM,12.0,10.0,92,30.68,2.0,Calm,Calm,-,N/A,,Overcast,0,2013-01-20 01:53:00
7:20 PM,12.2,8.6,85,30.50,2.5,Calm,Calm,-,N/A,,Overcast,0,2013-01-20 02:20:00
7:38 PM,12.2,8.6,85,30.49,3.0,Calm,Calm,-,0.00,,Overcast,0,2013-01-20 02:38:00
7:53 PM,12.0,9.0,88,30.68,3.0,Calm,Calm,-,0.00,,Overcast,0,2013-01-20 02:53:00
8:53 PM,10.0,8.1,92,30.70,3.0,Calm,Calm,-,N/A,,Overcast,0,2013-01-20 03:53:00
9:24 PM,10.4,8.6,92,30.51,2.5,NNW,3.5,-,N/A,,Overcast,340,2013-01-20 04:24:00
9:35 PM,10.4,8.6,92,30.51,1.5,Calm,Calm,-,0.00,Snow,Light Snow,0,2013-01-20 04:35:00
10:01 PM,10.4,6.8,85,30.50,2.0,Calm,Calm,-,0.00,Snow,Light Snow,0,2013-01-20 05:01:00
10:39 PM,10.4,8.6,92,30.50,3.0,Calm,Calm,-,0.00,,Overcast,0,2013-01-20 05:39:00
10:53 PM,10.9,8.1,88,30.67,3.0,East,3.5,-,0.00,,Overcast,100,2013-01-20 05:53:00
11:53 PM,12.0,9.0,88,30.66,2.5,East,3.5,-,N/A,,Overcast,90,2013-01-20 06:53:00